{"data":{"norad_id":56712,"intl_designator":"2023-068C","name":"ONEWEB-0676","alt_names":[],"object_type":"PAYLOAD","status":"ACTIVE","operator":null,"country":"UK","launch_date":"2023-05-20","launch_site_code":"AFWTR","launch_vehicle":null,"mission":null,"orbit_class":"UNKNOWN","rcs_meters":null,"size_class":null,"mass_kg":null,"dimensions":null,"purposes":["comms"],"wikipedia_slug":null,"has_3d_model":false,"image_url":null,"decayed_at":null,"tle_current":{"epoch":"2026-09-19T16:09:12.375360Z","epoch_age_seconds":89801,"freshness":"FRESH","line1":"1 56712U 23068C   26262.67305990 -.00009297  00000+0 -24360-1 0  9991","line2":"2 56712  87.9154 210.0213 0002521  86.6646 273.4773 13.16640615164133","mean_motion":13.16640615,"eccentricity":0.0002521,"inclination_deg":87.9154,"raan_deg":210.0213,"arg_perigee_deg":86.6646,"mean_anomaly_deg":273.4773,"bstar":-0.02436,"rev_number":16413,"period_min":109.36925259593,"perigee_km":1195.6690001242,"apogee_km":1199.4886760497,"semimajor_km":7575.7158380869,"source":"CELESTRAK","updated_at":"2026-09-20T09:00:44.794720Z"}}}